Domov               UVHVVR             MKGP            O straneh              
ZDRAVSTVENO VARSTVO RASTLIN
  MREŽA AGROMET. POSTAJ
 ► PROGNOSTIČNA OBVESTILA
AGROMETEOROLOŠKI PODATKI -
ARSO
OBVLADOVANJE TVEGANJ ZARADI
NEUGODNIH VREMENSKIH RAZMER
  ► NARAVNE NESREČE
  ► SUŠA/MOČA
  ► NAMAKANJE
  ► ŽLED (gozdarstvo)
KARTOGRAFSKI PRIKAZI
SPLETNE POVEZAVE
PROJEKTI IN PUBLIKACIJE

AGROMETEOROLOŠKA MREŽA: VREMENSKE POSTAJE IN FENOLOŠKA OPAZOVANJA

Pregled podatkov za lokacijo Vidonci, meteorološka postaja 42838

Pregled senzorjev na lokaciji

ID Ime Zadnja
vrednost
Datum
zadnje
spremembe
Tip
senzorja
2110 Omočenost lista (U) 0 U 25.2.2018 16:00 A730WET
2113 Padavine (mm) 0 mm 25.2.2018 16:00 Rain-O-Matic
2112 Relativna vlaga 2 m (% RH) 48,91 % RH 25.2.2018 16:00 50YA
2111 Temperatura 2 m (°C) -6,23 °C 25.2.2018 16:00 50YA

Pregled podatkov zadnjih 24 ur

Zap.
št.
Datum in čas Vidonci
Omočenost
lista
Padavine Relativna
vlaga
2
m
Temperatura
2
m
1 25.2.2018 16:00
2 25.2.2018 15:30 0 0 47,2 -5,7
3 25.2.2018 15:00 0 0 47,2 -5,6
4 25.2.2018 14:30 0 0 46,1 -5,4
5 25.2.2018 14:00 0 0 46,7 -5,7
6 25.2.2018 13:30 0 0 46,5 -5,7
7 25.2.2018 13:00 0 0 46,1 -5,6
8 25.2.2018 12:30 0 0 45,3 -5,4
9 25.2.2018 12:00 0 0 47,2 -6,8
10 25.2.2018 11:30 0 0 48,4 -7,4
11 25.2.2018 11:00 0 0 50,6 -7,4
12 25.2.2018 10:30 0 0 52,1 -7,3
13 25.2.2018 10:00 0 0 52,8 -7,6
14 25.2.2018 09:30 0 0 56,2 -8,5
15 25.2.2018 09:00 0 0 62,1 -10,1
16 25.2.2018 08:30 0 0 62 -9,6
17 25.2.2018 08:00 0 0 63,3 -9,9
18 25.2.2018 07:30 0 0 67,3 -11
19 25.2.2018 07:00 0 0 68,5 -11,3
20 25.2.2018 06:30 0 0 67,9 -11
21 25.2.2018 06:00 0 0 68,1 -10,9
22 25.2.2018 05:30 0 0 68,1 -10,8
23 25.2.2018 05:00 0 0 66,3 -10,4
24 25.2.2018 04:30 0 0 64,6 -10,1
25 25.2.2018 04:00 0 0 63,3 -9,7
26 25.2.2018 03:30 0 0 63,3 -9,4
27 25.2.2018 03:00 0 0 64,7 -9
28 25.2.2018 02:30 0 0 66,5 -8,8
29 25.2.2018 02:00 0 0 67 -8,5
30 25.2.2018 01:30 0 0 65,5 -8,2
31 25.2.2018 01:00 0 0 64,7 -8
32 25.2.2018 00:30 0 0 63,6 -7,6
33 25.2.2018 00:00 0 0 62 -7,3
34 24.2.2018 23:30 0 0 59,7 -7
35 24.2.2018 23:00 0 0 57,5 -6,8
36 24.2.2018 22:30 0 0 55,4 -6,6
37 24.2.2018 22:00 0 0 54,9 -6,3
38 24.2.2018 21:30 0 0 54,2 -5,9
39 24.2.2018 21:00 0 0 59,8 -5,8
40 24.2.2018 20:30 0 0 64,3 -5,5
41 24.2.2018 20:00 0 0 67,4 -4,9
42 24.2.2018 19:30 0 0 68,2 -4,4
43 24.2.2018 19:00 0 0 60,3 -3,9
44 24.2.2018 18:30 0 0 56,6 -3,8
45 24.2.2018 18:00 0 0 58,5 -4,1
46 24.2.2018 17:30 0 0 57,7 -3,7
47 24.2.2018 17:00 0 0 55,5 -3,1
48 24.2.2018 16:30 0 0 53,5 -2,3
© 2011 Ministrstvo za kmetijstvo, gozdarstvo in prehrano. Vse pravice pridržane.